Poteau, OK

6:40 AM CST on December 06, 2016 (GMT -0600)
Kerr

Weather History for KRKR - February, 2014

Change the Weather History Date:

Sunday, February 2, 2014

  Actual Average (KFSM) Record (KFSM)
Temperature  
Mean Temperature 32 °F 41 °F  
Max Temperature 33 °F 52 °F 77 °F (1995)
Min Temperature 32 °F 30 °F -9 °F (1951)
Degree Days  
Heating Degree Days 32 24  
Month to date heating degree days 48  
Since 1 July heating degree days 2139  
Moisture  
Dew Point 31 °F    
Average Humidity 94    
Maximum Humidity 100    
Minimum Humidity 87    
Precipitation  
Precipitation 0.00 in 0.10 in 1.46 in (1886)
Month to date precipitation 0.19  
Year to date precipitation 3.00  
Sea Level Pressure  
Sea Level Pressure 30.20 in    
Wind  
Wind Speed 9 mph (North)    
Max Wind Speed 15 mph    
Max Gust Speed 18 mph    
Visibility 6 miles    
Events Snow    
T = Trace of Precipitation, MM = Missing Value Source: NWS Daily Summary

Daily Weather History Graph

Daily Weather History Graph

Search for Another Location

Airport or City:

Trip Planner

Search our weather history database for the weather conditions in past years. The results will help you decide how hot, cold, wet, or windy it might be!

Date:

Astronomy

Feb. 02, 2014 Rise Set
Actual Time 7:16 AM CST 5:48 PM CST
Civil Twilight 6:49 AM CST 6:14 PM CST
Nautical Twilight 6:19 AM CST 6:45 PM CST
Astronomical Twilight 5:49 AM CST 7:14 PM CST
Moon 8:52 AM CST (2/2) 9:22 PM CST (2/2)
Length of Visible Light 11h 24m
Length of Day
10h 31m
Waxing Crescent, 11% of the Moon is Illuminated
Feb 2
Waxing Crescent
Feb 6
First Quarter
Feb 14
Full
Feb 22
Last Quarter
Mar 1
New

Hourly Weather History & Observations

Time (CST) Temp. Windchill Dew Point Humidity Pressure Visibility Wind Dir Wind Speed Gust Speed Precip Events Conditions
12:15 AM 33.8 °F 24.8 °F 32.0 °F 93% 30.11 in 4.0 mi NNW 12.7 mph - N/A   Mist
12:35 AM 33.8 °F 25.8 °F 32.0 °F 93% 30.11 in 4.0 mi NNW 10.4 mph - N/A   Mist
12:55 AM 33.8 °F 26.4 °F 32.0 °F 93% 30.11 in 5.0 mi NNW 9.2 mph - N/A   Mist
1:15 AM 33.8 °F 24.8 °F 32.0 °F 93% 30.11 in 5.0 mi NNW 12.7 mph 16.1 mph N/A   Mist
1:35 AM 33.8 °F 26.4 °F 32.0 °F 93% 30.12 in 5.0 mi NNW 9.2 mph - N/A   Mist
1:55 AM 33.8 °F 26.4 °F 32.0 °F 93% 30.11 in 5.0 mi NNW 9.2 mph - N/A   Mist
2:15 AM 33.8 °F 26.4 °F 32.0 °F 93% 30.10 in 5.0 mi North 9.2 mph - N/A   Mist
2:35 AM 33.8 °F 25.8 °F 32.0 °F 93% 30.11 in 5.0 mi North 10.4 mph - N/A   Mist
2:55 AM 33.8 °F 27.0 °F 32.0 °F 93% 30.14 in 5.0 mi North 8.1 mph - N/A   Mist
3:15 AM 33.8 °F 26.4 °F 32.0 °F 93% 30.13 in 5.0 mi North 9.2 mph - N/A   Mist
3:35 AM 33.8 °F 27.0 °F 32.0 °F 93% 30.13 in 5.0 mi North 8.1 mph - N/A   Mist
3:55 AM 33.8 °F 26.4 °F 32.0 °F 93% 30.13 in 5.0 mi North 9.2 mph - N/A   Mist
4:15 AM 33.8 °F 25.3 °F 32.0 °F 93% 30.13 in 5.0 mi North 11.5 mph - N/A   Mist
4:35 AM 33.8 °F 27.7 °F 32.0 °F 93% 30.15 in 5.0 mi North 6.9 mph - N/A   Mist
4:55 AM 33.8 °F 28.6 °F 32.0 °F 93% 30.14 in 5.0 mi North 5.8 mph - N/A   Mist
5:15 AM 33.8 °F 29.6 °F 32.0 °F 93% 30.14 in 7.0 mi NNE 4.6 mph - N/A   Unknown
5:35 AM 33.8 °F 27.0 °F 32.0 °F 93% 30.15 in 7.0 mi North 8.1 mph - N/A   Unknown
5:55 AM 33.8 °F 27.7 °F 32.0 °F 93% 30.15 in 7.0 mi North 6.9 mph - N/A   Unknown
6:15 AM 33.8 °F 25.3 °F 32.0 °F 93% 30.15 in 7.0 mi North 11.5 mph - N/A   Unknown
6:35 AM 33.8 °F 26.4 °F 32.0 °F 93% 30.18 in 7.0 mi North 9.2 mph 16.1 mph N/A   Unknown
6:55 AM 33.8 °F 25.3 °F 32.0 °F 93% 30.21 in 7.0 mi NNW 11.5 mph - N/A   Unknown
7:15 AM 33.8 °F 23.9 °F 32.0 °F 93% 30.18 in 7.0 mi North 15.0 mph - N/A   Unknown
7:35 AM 32.0 °F 22.1 °F 32.0 °F 100% 30.19 in 5.0 mi North 13.8 mph - N/A Snow Light Snow
7:55 AM 32.0 °F 22.5 °F 32.0 °F 100% 30.18 in 4.0 mi NNE 12.7 mph - N/A Snow Light Snow
8:15 AM 32.0 °F 23.0 °F 32.0 °F 100% 30.15 in 2.0 mi NNE 11.5 mph 16.1 mph N/A Snow Light Snow
8:35 AM 32.0 °F 26.4 °F 32.0 °F 100% 30.15 in 2.0 mi NNE 5.8 mph 17.3 mph N/A   Unknown
8:55 AM 32.0 °F 27.5 °F 32.0 °F 100% 30.18 in 2.5 mi NNE 4.6 mph - N/A   Unknown
9:15 AM 32.0 °F 25.6 °F 32.0 °F 100% 30.20 in 1.5 mi NNW 6.9 mph - N/A Snow Light Snow
9:35 AM 32.0 °F 26.4 °F 32.0 °F 100% 30.25 in 0.5 mi NW 5.8 mph - N/A Snow Snow
9:55 AM 32.0 °F 24.8 °F 32.0 °F 100% 30.25 in 0.5 mi NNW 8.1 mph - N/A Snow Snow
10:15 AM 32.0 °F 22.5 °F 32.0 °F 100% 30.25 in 0.8 mi North 12.7 mph 16.1 mph N/A Snow Light Snow
10:35 AM 32.0 °F 24.2 °F 32.0 °F 100% 30.25 in 1.5 mi North 9.2 mph - N/A Snow Light Snow
10:55 AM 32.0 °F 23.6 °F 32.0 °F 100% 30.23 in 1.5 mi North 10.4 mph - N/A Snow Light Snow
11:15 AM 32.0 °F 23.6 °F 32.0 °F 100% 30.23 in 1.0 mi North 10.4 mph - N/A Snow Light Snow
11:35 AM 32.0 °F 23.0 °F 32.0 °F 100% 30.20 in 1.5 mi North 11.5 mph - N/A Snow Light Snow
11:55 AM 32.0 °F 23.0 °F 32.0 °F 100% 30.21 in 2.0 mi North 11.5 mph - N/A   Unknown
12:15 PM 32.0 °F 27.5 °F 32.0 °F 100% 30.23 in 4.0 mi North 4.6 mph - N/A   Unknown
12:35 PM 32.0 °F 25.6 °F 32.0 °F 100% 30.22 in 3.0 mi North 6.9 mph - N/A Snow Light Snow
12:55 PM 32.0 °F 24.2 °F 32.0 °F 100% 30.20 in 1.5 mi North 9.2 mph - N/A Snow Light Snow
1:15 PM 32.0 °F 24.8 °F 32.0 °F 100% 30.18 in 2.5 mi North 8.1 mph - N/A Snow Light Snow
1:35 PM 32.0 °F 23.0 °F 32.0 °F 100% 30.17 in 3.0 mi North 11.5 mph - N/A Snow Light Snow
1:55 PM 32.0 °F 23.6 °F 32.0 °F 100% 30.14 in 5.0 mi NNE 10.4 mph - N/A   Mist
2:15 PM 32.0 °F 25.6 °F 32.0 °F 100% 30.17 in 7.0 mi North 6.9 mph - N/A   Unknown
2:35 PM 32.0 °F 23.6 °F 32.0 °F 100% 30.15 in 7.0 mi North 10.4 mph - N/A   Unknown
2:55 PM 32.0 °F 24.8 °F 32.0 °F 100% 30.15 in 7.0 mi North 8.1 mph - N/A   Unknown
3:15 PM 32.0 °F 23.6 °F 32.0 °F 100% 30.16 in 10.0 mi North 10.4 mph - N/A   Unknown
3:35 PM 32.0 °F 24.2 °F 32.0 °F 100% 30.17 in 10.0 mi North 9.2 mph - N/A   Unknown
3:55 PM 32.0 °F 23.6 °F 30.2 °F 93% 30.18 in 10.0 mi NNW 10.4 mph - N/A   Unknown
4:15 PM 32.0 °F 25.6 °F 30.2 °F 93% 30.20 in 10.0 mi North 6.9 mph - N/A   Unknown
4:35 PM 32.0 °F 25.6 °F 30.2 °F 93% 30.22 in 3.0 mi North 6.9 mph - N/A Snow Light Snow
4:55 PM 32.0 °F 24.8 °F 30.2 °F 93% 30.23 in 1.5 mi North 8.1 mph - N/A Snow Light Snow
5:15 PM 32.0 °F 24.2 °F 30.2 °F 93% 30.21 in 1.2 mi North 9.2 mph - N/A Snow Light Snow
5:35 PM 32.0 °F 23.0 °F 30.2 °F 93% 30.21 in 4.0 mi NNW 11.5 mph - N/A Snow Light Snow
5:55 PM 32.0 °F 22.5 °F 30.2 °F 93% 30.20 in 7.0 mi North 12.7 mph - N/A   Unknown
6:15 PM 32.0 °F 23.6 °F 30.2 °F 93% 30.19 in 7.0 mi North 10.4 mph - N/A   Unknown
6:35 PM 32.0 °F 24.8 °F 32.0 °F 100% 30.24 in 7.0 mi NNW 8.1 mph - N/A   Unknown
6:55 PM 32.0 °F 24.8 °F 30.2 °F 93% 30.24 in 7.0 mi NNW 8.1 mph - N/A   Unknown
7:15 PM 32.0 °F 24.2 °F 30.2 °F 93% 30.25 in 10.0 mi North 9.2 mph - N/A   Unknown
7:35 PM 32.0 °F 23.6 °F 30.2 °F 93% 30.26 in 10.0 mi North 10.4 mph 18.4 mph N/A   Unknown
7:55 PM 32.0 °F 23.6 °F 28.4 °F 87% 30.26 in 10.0 mi North 10.4 mph - N/A   Unknown
8:15 PM 32.0 °F 24.2 °F 28.4 °F 87% 30.27 in 10.0 mi North 9.2 mph - N/A   Unknown
8:35 PM 32.0 °F 24.8 °F 28.4 °F 87% 30.26 in 10.0 mi North 8.1 mph - N/A   Unknown
8:55 PM 32.0 °F 25.6 °F 28.4 °F 87% 30.26 in 10.0 mi North 6.9 mph - N/A   Unknown
9:15 PM 32.0 °F 26.4 °F 28.4 °F 87% 30.28 in 10.0 mi North 5.8 mph - N/A   Unknown
9:35 PM 32.0 °F 25.6 °F 28.4 °F 87% 30.28 in 10.0 mi North 6.9 mph - N/A   Unknown
9:55 PM 32.0 °F 27.5 °F 28.4 °F 87% 30.28 in 10.0 mi North 4.6 mph - N/A   Unknown
10:15 PM 32.0 °F 26.4 °F 28.4 °F 87% 30.28 in 10.0 mi North 5.8 mph - N/A   Unknown
10:35 PM 32.0 °F 24.8 °F 28.4 °F 87% 30.28 in 10.0 mi North 8.1 mph - N/A   Unknown
10:55 PM 32.0 °F 25.6 °F 28.4 °F 87% 30.28 in 10.0 mi North 6.9 mph - N/A   Unknown
11:15 PM 32.0 °F 28.7 °F 28.4 °F 87% 30.29 in 10.0 mi North 3.5 mph - N/A   Unknown
11:35 PM 32.0 °F 25.6 °F 28.4 °F 87% 30.29 in 10.0 mi North 6.9 mph - N/A   Unknown
11:55 PM 32.0 °F - 28.4 °F 87% 30.29 in 10.0 mi Calm Calm - N/A   Unknown